Helicity
61 26 20 57 37 35 7 12 -23 41 24 12 44 13 22 29 19 8 24 -36 -8 -23 -48 -33 -15 -11 -1 28 30 31 13 3 -2 -3 -9 -5 18 24 28 16 10 3 8 9 10 17 10 12 12
67 77 50 47 35 24 -18 48 7 5 15 84 88 67 48 22 34 61 48 -24 10 -18 -35 -32 1 8 10 20 37 26 10 7 -2 -6 -8 -10 2 11 11 3 2 2 8 5 7 11 11 14 15
59 51 57 7 20 -1 0 62 29 60 38 26 40 74 23 20 31 23 4 18 2 -15 -22 -8 5 10 6 16 28 19 13 10 5 -4 -4 -2 0 2 0 -3 -1 3 6 9 7 12 10 21 19
7 40 53 27 -2 17 42 66 92 69 29 17 53 106 96 57 -12 -8 26 19 -5 -24 -18 0 10 7 4 14 21 18 19 13 6 2 -1 5 -6 -10 -3 3 -3 1 6 3 6 9 10 22 24
-16 21 27 49 11 45 42 212 134 105 38 32 69 37 69 30 15 30 -2 -9 6 -22 -21 -6 8 6 5 15 11 20 17 11 12 8 6 3 2 -7 -5 -1 -1 3 3 0 4 0 -1 4 12
29 28 -4 -17 -25 36 130 189 174 88 94 93 86 87 68 -7 29 -27 -28 -36 -31 -12 -22 6 13 11 5 3 8 23 13 13 16 10 14 4 8 5 -1 -1 5 8 10 11 17 12 4 -4 5
10 -35 -15 3 4 67 146 146 193 145 141 60 104 55 40 -10 -12 -13 -29 -20 -21 5 -16 11 15 14 5 1 16 16 16 18 10 9 9 7 9 3 5 11 14 19 22 20 22 19 -2 17 22
-1 -29 22 55 60 71 159 127 157 174 117 152 123 48 -2 -35 -2 28 17 10 47 24 8 7 19 9 7 5 23 24 28 18 13 15 14 22 13 11 12 11 19 27 19 13 14 45 14 3 15
24 4 50 62 95 80 178 171 169 66 189 42 72 77 19 24 63 60 47 35 49 21 7 15 13 10 1 11 18 28 25 17 17 18 15 10 -4 1 7 6 18 21 18 17 27 30 34 16 26
7 -12 -11 15 102 123 216 285 294 142 182 62 114 92 41 100 89 102 99 67 40 34 6 4 -2 -1 -2 10 0 1 1 -2 1 -1 5 -1 -1 2 6 14 26 27 25 23 19 24 32 6 12
49 45 -18 -3 64 127 153 249 152 259 153 116 254 139 77 129 141 138 99 90 34 11 -6 -18 -15 -8 -2 -5 -13 -20 -30 -17 -8 -1 -7 -8 -8 -2 2 4 5 18 31 15 16 20 26 34 18
87 66 27 17 47 182 221 262 222 219 90 93 180 142 154 177 178 104 71 21 15 3 -11 -22 -22 -15 -11 -15 -20 -40 -44 -32 -24 -18 -7 -13 -6 1 4 11 9 15 5 24 24 20 33 42 49
39 35 -12 19 52 155 287 274 221 126 106 93 112 84 73 116 125 77 61 36 23 11 -11 -17 -12 -18 -23 -18 -22 -26 -26 -27 -13 -16 -12 -10 9 17 14 16 15 18 25 23 35 42 44 56 83
41 40 31 59 89 172 303 230 177 142 96 133 142 88 83 74 106 110 85 77 46 14 -4 -20 -3 -18 -14 -15 -14 -18 -12 -12 1 2 -6 0 3 11 31 31 38 29 39 53 51 53 45 73 99
-2 58 14 141 128 140 288 198 112 154 117 146 120 75 66 120 122 171 170 108 78 -8 -16 -9 -6 -1 18 33 12 1 9 0 19 10 -19 16 38 38 49 62 61 53 57 47 43 37 40 47 48
9 64 137 136 214 172 144 177 133 150 135 114 66 56 57 125 170 145 161 130 90 64 43 -7 -3 12 33 48 30 28 47 3 13 6 13 28 45 55 59 59 54 60 53 60 74 48 40 55 58
62 99 152 136 161 220 167 138 164 153 126 65 46 7 23 126 190 173 177 171 135 123 64 46 34 42 50 49 29 -2 14 11 4 -9 13 32 55 71 93 85 43 24 29 63 67 77 83 66 69
225 147 58 131 111 164 253 197 188 133 109 87 54 -14 11 52 147 259 200 195 154 126 91 69 96 98 91 70 77 64 74 12 7 22 35 37 62 95 105 75 53 58 53 62 82 82 67 74 63
256 278 148 78 75 193 174 164 243 115 62 70 115 74 33 96 112 136 152 156 151 94 89 113 155 115 136 115 77 74 125 60 0 23 35 37 42 64 108 77 52 59 72 85 86 56 40 50 83
147 121 185 77 112 115 153 124 145 162 102 65 144 169 151 124 131 143 120 117 154 138 121 140 159 126 133 84 50 17 28 33 -10 -30 -5 18 36 51 108 90 55 49 47 53 59 63 37 33 52
53 78 106 73 69 55 100 74 150 78 43 6 42 177 215 259 262 211 163 153 124 109 127 147 179 168 143 63 32 1 -13 -22 -28 -42 -9 35 38 46 79 76 73 66 69 54 41 63 82 48 37
12 8 109 179 166 90 71 155 213 171 105 49 18 99 192 243 234 267 247 183 168 129 116 137 154 160 128 85 75 65 38 21 -22 -50 2 20 49 52 67 80 87 100 94 82 73 60 73 78 46
78 -34 55 90 136 83 45 73 223 203 282 125 46 103 145 238 263 244 243 247 210 151 152 155 160 142 143 140 100 76 40 -2 -15 -35 -39 -41 -20 15 54 91 97 95 97 100 93 78 82 91 112
6 9 20 76 50 17 107 155 153 304 431 189 4 63 69 113 226 223 253 245 185 157 145 153 178 185 166 165 116 104 71 33 7 -16 -41 -39 -15 13 39 66 110 125 124 109 105 95 82 69 87
38 14 55 47 8 10 -77 -53 66 155 267 315 152 114 47 79 139 179 198 201 175 158 143 149 173 178 186 168 140 102 77 74 66 28 3 -12 -12 -5 28 39 69 101 131 119 88 82 72 40 95
-12 -11 30 9 -21 -9 -160 -130 -34 16 98 279 174 138 120 77 82 205 202 275 180 195 157 142 141 155 174 166 144 104 70 72 68 48 22 -7 -15 -13 -11 4 18 19 61 81 82 68 81 109 73
69 13 3 30 41 21 -13 -50 -28 -20 -4 63 93 91 103 95 74 110 106 200 235 155 199 173 146 147 162 186 137 98 71 78 76 50 36 29 18 8 17 14 4 -1 20 47 59 81 124 187 161
70 55 32 46 1 -10 2 -9 -7 46 32 32 31 102 142 83 96 73 151 233 205 198 177 201 170 193 203 161 151 132 113 72 60 42 66 70 53 39 21 11 -6 -20 7 27 42 84 117 172 144
41 79 61 26 8 40 -15 -13 16 15 14 48 74 107 152 124 136 121 147 249 290 204 160 183 177 157 159 170 157 140 125 111 82 73 78 92 76 57 25 13 -4 -24 -31 -18 28 44 86 127 122
15 4 3 36 81 42 53 -18 11 15 10 115 191 131 155 143 154 150 164 231 298 239 211 170 188 191 193 202 169 150 125 115 100 82 64 60 75 52 69 71 40 -33 -56 -14 11 25 69 89 98
Wind_Speed
33 30 28 28 18 15 15 35 34 40 37 29 45 37 17 20 26 25 20 39 41 41 39 44 53 54 52 49 49 48 49 49 50 49 52 53 50 48 44 50 49 50 50 50 49 46 44 44 43
32 36 29 28 28 30 15 34 38 35 40 28 16 28 24 29 24 22 25 54 48 46 44 51 56 55 52 48 49 48 48 48 50 51 52 53 53 50 49 50 50 49 48 48 47 45 43 41 41
33 36 34 33 31 27 20 40 35 34 42 22 21 23 28 31 14 37 16 47 46 47 53 57 54 54 51 50 47 47 48 49 50 51 52 53 53 52 49 50 49 47 46 44 44 43 42 41 41
27 27 29 29 38 28 29 43 44 45 38 31 32 21 17 33 42 24 38 38 42 48 57 57 52 54 51 49 47 47 48 49 51 52 52 53 53 51 52 52 51 49 48 44 43 42 41 39 38
18 18 17 16 26 28 34 49 45 42 41 39 29 30 18 10 19 37 41 43 45 48 57 57 55 52 50 49 49 49 49 50 51 51 52 51 51 51 51 51 49 47 45 44 42 41 40 39 37
21 22 15 23 19 31 43 48 45 41 40 36 34 29 15 15 33 41 46 46 42 46 56 57 54 51 52 51 51 50 50 51 51 51 49 51 48 49 50 49 47 46 44 42 40 38 39 39 38
27 21 19 17 39 44 46 47 40 41 40 38 38 31 22 30 29 34 31 34 26 35 59 56 53 51 52 52 51 50 51 51 51 51 50 49 49 47 47 48 45 45 42 40 36 38 40 39 37
18 20 21 29 44 41 46 43 40 41 41 44 41 31 35 43 35 10 9 10 45 54 58 57 53 49 51 51 52 51 51 51 51 50 49 49 47 46 46 45 44 42 41 40 38 41 39 38 36
29 20 28 36 39 42 49 43 43 35 41 34 34 30 42 40 29 27 53 47 52 58 59 58 56 53 52 52 51 51 51 50 49 48 48 47 45 44 43 42 41 39 38 38 39 40 37 36 35
22 19 31 32 41 47 48 44 45 39 44 36 38 35 50 55 52 58 62 60 58 59 61 59 56 54 54 52 51 51 50 50 48 48 47 46 44 42 41 40 38 36 35 35 35 33 32 31 30
32 30 31 32 40 45 46 44 43 44 37 36 48 56 63 66 65 64 63 62 60 58 60 58 56 56 55 53 52 51 50 49 48 46 46 45 44 41 39 37 36 35 34 32 31 30 29 28 26
34 32 33 40 43 45 44 44 39 40 30 44 56 67 69 67 68 64 61 59 58 58 57 58 57 56 55 53 52 51 49 49 47 46 46 45 43 40 38 36 35 34 33 31 29 28 27 24 23
31 28 33 38 41 41 41 39 38 34 39 49 57 61 63 63 62 60 57 57 58 57 56 59 58 57 55 53 52 51 50 49 47 45 44 43 41 39 36 35 33 31 30 28 27 25 23 21 20
29 30 35 39 42 40 40 38 36 35 44 48 55 60 59 59 59 59 57 57 57 58 57 59 60 56 54 52 51 49 48 48 46 44 44 41 39 37 34 33 31 29 27 25 23 22 22 20 15
27 35 31 43 41 38 43 33 31 38 42 47 51 56 57 58 58 57 56 56 56 57 56 55 57 54 52 50 48 46 47 47 47 44 43 42 39 37 34 32 27 27 24 21 20 18 17 15 14
26 28 31 37 41 37 34 24 30 39 41 43 50 52 53 53 56 56 55 55 53 51 52 56 54 51 51 49 48 46 45 47 46 42 41 39 37 35 32 29 28 24 23 18 16 15 11 12 13
25 26 30 32 36 34 32 25 32 39 40 43 49 50 51 47 49 54 54 53 52 50 49 50 49 47 44 40 43 42 41 44 44 45 44 38 30 28 25 21 20 18 17 16 14 13 12 8 13
24 24 30 34 32 31 30 26 33 37 39 43 46 49 47 47 48 49 51 49 49 48 48 48 46 43 42 36 27 28 20 37 39 37 38 35 28 22 18 17 18 16 15 14 13 12 17 10 11
29 34 37 38 35 35 33 27 32 38 39 38 42 48 50 48 48 47 47 43 40 46 46 44 40 39 33 24 30 20 26 29 34 28 37 34 32 28 22 20 19 18 18 15 14 25 28 16 19
27 33 33 33 37 37 34 34 30 40 40 39 39 44 50 50 45 49 50 47 44 46 47 43 42 40 38 35 32 27 26 25 26 32 35 35 31 29 22 20 20 18 16 14 15 22 36 40 38
26 29 37 34 32 43 38 40 36 41 37 36 41 40 46 48 50 49 50 50 46 47 46 46 46 43 40 44 39 35 28 20 14 32 29 31 30 27 22 19 18 17 15 13 14 20 23 33 40
29 35 34 26 35 40 43 32 38 42 45 43 42 45 49 50 52 51 51 51 49 50 47 45 42 40 40 42 42 38 33 32 26 25 28 25 24 23 18 20 19 18 16 14 14 14 22 28 11
47 39 38 22 37 33 43 37 31 37 46 50 47 49 52 53 54 53 57 56 56 53 53 51 46 43 39 41 41 40 41 40 37 30 27 26 22 19 19 20 20 20 17 16 15 18 20 23 14
54 53 48 36 42 39 41 38 34 32 42 48 49 51 55 55 57 57 56 55 55 54 55 51 51 49 45 44 46 45 44 43 41 39 37 31 26 26 25 25 22 24 22 17 13 13 17 26 30
49 46 50 41 10 42 39 38 42 34 34 44 50 50 56 58 56 55 56 57 56 57 56 55 54 53 50 49 48 48 46 43 41 39 35 30 28 29 37 37 33 31 26 19 10 7 7 14 14
62 49 40 48 57 57 32 32 46 41 41 48 55 52 51 56 56 53 59 55 57 55 54 54 54 55 50 49 50 50 47 44 41 38 35 31 27 29 35 38 36 32 24 16 11 7 5 3 14
62 52 52 46 47 61 60 58 54 41 41 48 57 53 49 51 56 56 53 53 52 53 53 53 52 53 51 50 48 47 45 43 41 39 36 32 26 26 26 27 26 24 19 11 10 7 3 1 10
59 48 54 52 52 57 62 63 59 57 47 52 61 57 56 55 51 55 47 48 51 50 51 48 50 49 52 50 46 44 43 42 39 37 33 31 29 25 25 25 25 24 13 9 10 8 7 3 6
59 58 50 50 50 61 79 70 61 61 53 50 48 55 53 53 50 53 49 46 47 48 43 47 44 44 43 45 45 41 39 37 37 37 35 30 24 23 23 23 17 14 13 10 3 1 3 3 4
56 61 58 63 72 60 64 87 59 58 57 38 24 49 53 51 50 49 47 45 43 47 45 47 43 38 39 39 38 39 32 28 29 33 34 31 29 23 15 11 12 13 15 9 3 3 11 9 11
Wind_Direction
176 216 268 220 255 253 255 171 180 134 171 226 137 173 151 271 260 285 124 103 104 105 103 111 131 137 120 110 118 116 115 120 112 95 113 118 90 86 80 95 95 93 101 103 106 82 76 76 74
144 153 230 229 208 51 341 172 75 170 138 50 337 198 261 243 283 62 88 128 113 112 110 123 144 148 130 114 126 123 118 128 117 121 120 120 108 92 91 97 99 95 93 96 93 80 77 70 68
154 161 175 187 202 218 356 149 59 49 82 236 284 273 239 203 1 97 117 114 113 116 128 139 135 145 156 132 130 125 129 129 122 129 126 123 109 100 92 99 100 91 91 86 87 78 84 80 78
196 206 183 192 174 203 195 102 85 83 57 11 54 349 280 200 94 75 102 103 109 118 137 143 133 154 150 132 130 124 136 134 131 129 126 125 117 108 112 116 110 110 103 91 91 94 92 84 80
330 263 243 233 198 200 122 110 101 80 77 71 39 52 3 18 44 95 105 109 114 118 136 143 152 150 142 131 132 141 144 140 138 133 128 128 124 116 125 126 127 126 127 121 119 114 109 109 93
213 215 240 25 0 185 104 118 99 89 69 58 55 59 29 59 85 103 113 115 113 117 137 158 160 148 146 143 148 152 146 139 136 138 142 136 141 130 125 130 128 128 125 119 120 126 132 129 123
184 206 225 252 79 125 122 130 101 88 83 76 82 63 50 98 94 99 97 105 100 196 152 170 161 158 157 148 154 154 147 144 142 146 147 142 136 137 137 126 130 126 120 113 138 127 122 130 127
226 233 215 188 120 134 118 125 111 89 97 91 90 78 111 122 106 75 63 73 210 188 177 173 174 174 162 156 153 154 151 145 141 148 144 144 141 137 140 140 134 127 120 126 131 115 120 123 123
166 204 183 159 144 135 125 115 122 144 103 151 139 81 113 111 99 92 142 191 189 180 176 171 172 167 160 164 161 151 146 142 141 150 156 156 152 150 146 144 143 131 130 134 134 119 120 128 132
200 213 180 173 139 119 130 116 122 123 111 125 49 72 115 124 125 134 148 167 170 168 170 171 163 157 159 168 167 155 151 152 145 155 160 159 155 157 152 150 149 147 144 145 149 134 125 133 138
159 175 177 163 134 114 122 119 139 103 124 127 105 117 130 143 147 155 169 163 155 160 166 167 162 161 157 161 161 159 157 155 156 154 156 161 163 159 158 158 161 154 149 148 150 142 139 146 152
144 166 165 143 130 104 114 117 115 124 135 132 131 134 141 145 155 166 169 170 166 161 158 161 161 159 161 161 158 159 159 163 162 164 164 159 161 165 159 159 152 154 152 152 152 147 151 152 151
138 154 166 153 139 129 105 123 123 144 122 126 135 140 148 150 161 170 174 173 169 162 161 163 158 158 158 163 159 160 164 165 163 169 170 167 165 165 164 163 157 156 157 159 157 155 159 162 164
136 147 136 134 136 124 119 118 117 125 125 127 142 154 154 156 159 165 167 169 167 165 164 167 167 164 161 164 165 163 170 176 174 171 169 171 172 174 167 161 160 161 155 153 159 163 168 178 155
151 141 142 115 129 133 94 126 149 125 128 140 146 156 162 164 165 166 163 164 164 168 162 160 164 164 163 162 165 168 177 182 181 176 175 177 174 175 178 176 162 167 154 152 150 150 165 173 166
171 176 151 146 125 129 141 158 129 130 133 143 156 160 165 169 174 176 172 173 168 163 162 167 166 165 168 168 171 177 179 181 181 178 177 176 173 173 176 170 171 160 157 131 116 116 118 165 177
179 186 179 165 152 125 147 147 134 133 139 148 160 168 172 166 172 179 176 175 171 166 162 163 164 165 162 163 164 167 163 171 183 190 190 177 160 158 151 136 142 120 99 118 115 87 79 113 195
192 210 208 191 164 153 152 153 129 137 143 153 160 172 172 175 176 172 172 170 170 168 166 165 163 161 160 147 133 138 112 161 183 174 179 178 162 140 121 120 127 82 85 93 90 83 57 104 197
226 229 218 207 180 170 176 161 142 155 153 155 162 172 179 175 174 164 163 158 157 165 164 163 159 159 149 138 149 136 151 152 167 155 178 173 167 159 145 138 121 105 133 131 93 28 21 71 50
249 221 203 210 188 179 177 190 164 163 166 161 160 168 178 180 166 168 164 162 159 161 164 162 163 161 161 158 153 141 143 146 149 168 173 169 160 161 140 130 145 137 132 121 67 35 4 359 6
238 231 228 222 184 204 190 214 188 185 183 179 181 175 177 174 168 166 167 168 162 163 162 162 162 162 161 165 156 151 134 119 93 160 156 161 159 158 154 141 137 143 124 139 83 48 39 15 8
217 241 233 207 170 190 181 209 198 189 193 191 187 182 181 178 177 173 170 169 167 169 165 162 160 161 162 160 161 159 149 148 138 140 155 153 155 159 146 154 149 147 130 143 127 94 53 36 64
239 241 245 184 171 157 193 209 216 179 193 195 188 183 182 181 177 176 180 178 176 172 170 168 165 164 160 162 163 163 168 168 165 160 154 160 153 152 157 155 161 164 147 156 129 84 67 49 43
254 270 298 296 211 190 189 183 223 179 191 191 189 185 183 180 182 183 181 179 180 176 175 172 171 172 168 166 168 169 173 173 174 181 185 174 167 175 176 175 174 186 189 172 133 91 62 39 16
291 293 269 285 335 206 193 177 218 223 203 189 183 182 185 182 181 181 182 180 179 179 178 177 178 179 174 173 174 176 178 174 176 182 184 181 180 188 199 200 200 202 202 195 168 103 92 81 90
266 278 297 277 244 241 203 186 234 244 230 193 183 177 175 182 183 181 185 177 180 179 179 179 181 183 178 176 179 180 180 180 181 182 181 178 181 191 200 205 210 213 207 193 169 149 102 108 231
268 280 279 290 286 266 263 254 253 266 261 192 183 178 176 177 181 184 182 181 179 180 181 181 181 182 181 180 179 180 181 181 182 183 181 181 176 180 177 183 180 189 184 148 114 90 69 270 241
269 277 278 283 288 282 266 260 234 267 273 226 189 185 184 184 182 188 184 184 184 183 182 180 182 182 183 182 181 182 182 184 185 184 182 182 184 178 180 185 192 199 168 120 74 35 18 29 245
270 269 277 284 283 278 255 257 264 267 291 235 186 191 186 185 184 187 186 184 185 185 181 182 180 181 181 182 183 182 183 184 185 187 188 183 177 177 187 191 178 164 164 159 161 171 24 9 343
278 271 275 275 272 277 275 246 272 273 278 309 207 202 191 187 184 184 183 181 181 184 184 186 184 183 184 182 181 184 182 180 183 188 190 190 192 188 176 145 156 174 192 186 136 19 20 13 359